Terug naar catalogus

STARLINK-33886

ActiefCommunicatieVLEO
NORAD 63681·PAYLOAD·🇺🇸 United States

Gelanceerd Apr 28, 2025 vanaf Cape Canaveral Space Force Station

Loading…

Volgende Passages (komende 24 uur)

TLE

VersSource: CelesTrak SupGP

Epoch: Sep 14, 2026, 22:39 UTC

1 63681C 25085T   26257.94423611  .00032021  00000+0  11596-2 0  2574
2 63681  43.0024  41.6074 0001660 275.6265 302.7313 15.27568430    18

Volg STARLINK-33886 in realtime met AllMySat

Download on the App Store